Location: Atlantic Beach
(40.5890°N, 73.7290°W)
Time: 04:22:18
(UTC+00:00)

Cosmos 44 - Pass Details

Date: 29 October 2020
Orbit: 578 x 784 km, 65.1° (Epoch: 23 November)

Event Time Altitude Azimuth Distance (km) Brightness Sun altitude
Rises 22:14:03 0° 225° (SW) 2,842 7.6 -4.4°
Reaches altitude 10° 22:16:18 10° 230° (SW) 1,967 6.9 -4.8°
Maximum altitude 22:20:37 50° 307° (NW) 817 4.0 -5.6°
Drops below altitude 10° 22:25:13 10° 23° (NNE) 2,099 5.4 -6.5°
Sets 22:27:41 0° 28° (NNE) 3,054 6.2 -6.9°
